Terminal Aerodrome Forecast
Issued by NWS

Home | Current Version | Previous Version | Text Only | Print | Product List | Glossary On
Versions: 1 2 3 4 5 6 7 8 9 10 11 12 13 14 15 16 17 18 19 20 21 22 23 24 25 26 27 28 29 30 31 32 33 34 35 36
000
FTUS46 KLOX 291100
TAFLAX
TAF
KLAX 291123Z 2912/3018 VRB05KT 1/4SM FG VV001
     FM291500 VRB03KT 2SM BR BKN004
     FM291700 23006KT 4SM HZ BKN250
     FM292000 25010KT P6SM SCT250
     FM300400 VRB05KT P6SM SCT250
     FM300700 VRB05KT 6SM BR SCT006
     FM301000 VRB05KT 2SM BR BKN002
     FM301700 VRB03KT 4SM BR BKN250=

USA.gov is the U.S. government's official web portal to all federal, state and local government web resources and services.